Location: Newark
(48.8604°N, 2.3376°E)
Time: 12:44:28
(UTC+00:00)

ISS - Visible Passes

Search period start: 20 September 2021 00:00
Search period end: 30 September 2021 00:00
Orbit: 419 x 423 km, 51.6° (Epoch: 20 September)

Date Brightness Start Highest point End Pass type
(mag) Time Alt. Az. Time Alt. Az. Time Alt. Az.
20 Sep -3.7 18:54:01 10° SW 18:57:20 61° SSE 18:59:51 16° ENE visible
20 Sep -1.8 20:30:56 10° W 20:32:51 29° WNW 20:32:51 29° WNW visible
21 Sep -3.4 19:43:58 10° W 19:47:19 61° NNW 19:47:51 51° NE visible
22 Sep -3.6 18:56:59 10° WSW 19:00:22 74° NNW 19:02:48 18° ENE visible
22 Sep -1.5 20:34:09 10° WNW 20:35:47 25° WNW 20:35:47 25° WNW visible
23 Sep -3.2 19:47:10 10° W 19:50:28 50° N 19:50:40 49° NNE visible
24 Sep -3.2 19:00:09 10° W 19:03:29 53° N 19:05:30 21° ENE visible
24 Sep -1.1 20:37:14 10° WNW 20:38:29 21° WNW 20:38:29 21° WNW visible
25 Sep -3.3 18:13:08 10° W 18:16:29 60° NNW 18:19:50 10° ENE visible
25 Sep -3.1 19:50:17 10° WNW 19:53:18 52° NNW 19:53:18 52° NNW visible
26 Sep -3.2 19:03:18 10° WNW 19:06:37 51° N 19:08:06 28° ENE visible
26 Sep -0.8 20:40:13 10° WNW 20:41:05 17° WNW 20:41:05 17° WNW visible
27 Sep -3.1 18:16:18 10° WNW 18:19:36 50° N 18:22:54 10° ENE visible
27 Sep -2.9 19:53:16 10° WNW 19:55:54 50° WNW 19:55:54 50° WNW visible
28 Sep -3.6 19:06:19 10° WNW 19:09:41 65° NNE 19:10:42 40° E visible
28 Sep -0.5 20:43:17 10° WNW 20:43:41 13° W 20:43:41 13° W visible
29 Sep -3.4 18:19:21 10° WNW 18:22:41 56° N 18:25:32 13° E visible
29 Sep -2.3 19:56:16 10° WNW 19:58:31 36° W 19:58:31 36° W visible
